CUBESX-HSE 3 (RS42S)

Last updated on Sun Aug 09 2026 00:03:15 GMT+0000 (Coordinated Universal Time)

1 57178U 23091N 26220.62831347 .00006622 00000+0 21393-3 0 9995 2 57178 97.5058 286.9131 0008647 262.5769 97.4490 15.32417068172455
UTC large
Height (km)
Speed (km/s)
/
Latitude / Longitude
Inclination (degrees)
Orbital Period (minutes)
Azimuth
Elevation
Range (km)
Doppler Factor

Next 0 passes for location: London (51.5072 / 0.1276)

No passes found over London.
CUBESX-HSE 3 (RS42S)